TimeMST,TemperatureF,Dew PointF,Humidity,Sea Level PressureIn,VisibilityMPH,Wind Direction,Wind SpeedMPH,Gust SpeedMPH,PrecipitationIn,Events,Conditions,WindDirDegrees,DateUTC
12:53 AM,36.0,15.1,43,30.38,10.0,WSW,25.3,34.5,N/A,,Clear,240,2013-01-17 07:53:00
2:53 AM,36.0,14.0,41,30.39,10.0,SW,25.3,35.7,N/A,,Clear,230,2013-01-17 09:53:00
3:53 AM,35.1,12.9,40,30.39,10.0,WSW,24.2,35.7,N/A,,Clear,240,2013-01-17 10:53:00
5:53 AM,32.0,14.0,48,30.38,10.0,WSW,26.5,39.1,N/A,,Clear,240,2013-01-17 12:53:00
6:53 AM,30.9,12.0,46,30.40,10.0,WSW,32.2,40.3,N/A,,Clear,240,2013-01-17 13:53:00
7:53 AM,32.0,12.0,44,30.41,10.0,WSW,25.3,36.8,N/A,,Clear,240,2013-01-17 14:53:00
8:53 AM,30.9,12.0,46,30.42,10.0,WSW,28.8,38.0,N/A,,Clear,240,2013-01-17 15:53:00
9:53 AM,33.1,12.9,43,30.40,10.0,WSW,27.6,35.7,N/A,,Clear,250,2013-01-17 16:53:00
11:53 AM,37.0,12.0,36,30.33,10.0,WSW,36.8,49.5,N/A,,Clear,240,2013-01-17 18:53:00
12:53 PM,41.0,14.0,33,30.28,10.0,WSW,36.8,42.6,N/A,,Clear,240,2013-01-17 19:53:00
1:53 PM,45.0,15.1,30,30.25,10.0,WSW,28.8,35.7,N/A,,Clear,240,2013-01-17 20:53:00
2:53 PM,45.0,15.1,30,30.22,10.0,WSW,28.8,39.1,N/A,,Clear,240,2013-01-17 21:53:00
3:53 PM,44.1,16.0,32,30.22,10.0,SW,24.2,33.4,N/A,,Clear,230,2013-01-17 22:53:00
4:53 PM,39.9,16.0,38,30.26,10.0,WSW,23.0,33.4,N/A,,Clear,250,2013-01-17 23:53:00
5:36 PM,41.0,15.8,36,30.20,10.0,SSW,29.9,38.0,N/A,,Clear,210,2013-01-18 00:36:00
5:53 PM,41.0,15.1,35,30.25,10.0,SW,23.0,41.4,N/A,,Clear,220,2013-01-18 00:53:00
6:53 PM,37.0,16.0,42,30.27,10.0,WSW,20.7,33.4,N/A,,Clear,250,2013-01-18 01:53:00
7:53 PM,39.0,16.0,39,30.23,10.0,SW,29.9,41.4,N/A,,Clear,220,2013-01-18 02:53:00
8:53 PM,41.0,14.0,33,30.25,10.0,West,34.5,47.2,N/A,,Clear,260,2013-01-18 03:53:00
9:53 PM,39.0,15.1,38,30.22,10.0,SW,32.2,43.7,N/A,,Clear,220,2013-01-18 04:53:00
10:53 PM,37.9,14.0,38,30.21,10.0,WSW,29.9,46.0,N/A,,Clear,240,2013-01-18 05:53:00
11:53 PM,37.9,12.9,36,30.17,10.0,SW,36.8,50.6,N/A,,Clear,230,2013-01-18 06:53:00